CZ-3C DEB, 40198

Orbit data source: Space-Track

CZ-3C DEB, 40198 is space debris in HEO originally from a launch on Fri, 24 Feb 2012 UTC launched from the Xichang Space Center, China (XSC). Debris objects in space refer to the collection of defunct objects orbiting the Earth. Examples of debris include non-operational satellites, rocket bodies, and fragments generated from explosions, collisions, or faulty payload assembly.

Not visible in the next 10 days
Identifier
40198, 2012-008H
Orbit
HEO
Country
Flag of CNCN / PRC
Related business
Manufacturer
CALT
Mission
Spacecraft
Bus & Motor
Unknown
Mass
Unknown
Launch date (UTC)
2012-02-24 (14 years ago)
Launch vehicle
Unknown
Launch site
Xichang Space Center, China (XSC)
Object type
Payload
Rocket body
Debris
Shape & HBR
Unknown shape, 0.3 m
Radar Cross Section
Medium (>0.1 m² and <1 m²)

Expand to show TLE details & history
Last TLE update: 2 days ago

TLE from 2 days ago
0 CZ-3C DEB
1 40198U 12008H   25286.49016113  .00001402  00000-0  90653-2 0  9993
2 40198  19.0295  93.7279 7267379 112.6013 335.1828  2.18583977 94207
Epoch: 2025-10-13T11:45Z
TLE epoch observation values (Epoch: 2025-10-13T11:45:49.921Z)
Latitude
-0.00005°
Longitude
-104.96246°
Altitude
9,979.548 km
Speed
5.731 km/s
True Right ascension
06h 15m 09s
True Declination
0° 00' 00"
Sunlit
Object was in daylight at epoch
Visualization orbit readout
Latitude
Unknown
Longitude
Unknown
Altitude
Unknown
Speed
Unknown
Apparent Right ascension
Unknown
Apparent Declination
Unknown
Sunlit
N/A
Visualization observer readout
Local Sidereal Time
17:42:34
Azimuth
Unknown
Elevation
Unknown
Doppler factor
Unknown
Orbital elements
Apogee altitude
36,935.885 km
Perigee altitude
476.453 km
Semi-major axis
25,084.306 km
Eccentricity
0.72674
Inclination
19.0295°
RAAN
93.7279°
Arg. of periapsis
112.6013°
True anomaly
247.68288°
Mean anomaly
335.1828°
Eccentric anomaly
298.63751°
Mean motion
0.54631 °/min
Orbital period
658.97 mins
BSTAR
0.0090653
Loading maneuver chart data...
Computing Atmospheric mass density...
Loading historical data...
Loading historical data...
Loading historical data...
Loading historical data...
Loading historical data...
Loading historical data...
Loading historical data...

Documentation

Showing up to 5 results
|